Location: *
(55.5817°S, 142.4781°W)
Time: 07:28:20
(UTC+00:00)

Cosmos 2219 - Pass Details

Date: 29 April 2025
Orbit: 831 x 860 km, 71.1° (Epoch: 23 May)

Event Time Altitude Azimuth Distance (km) Brightness Sun altitude
Exits shadow 13:31:19 43° 194° (SSW) 1,172 3.8 -28.3°
Maximum altitude 13:33:06 67° 128° (SE) 916 3.4 -28.0°
Drops below altitude 10° 13:38:43 10° 45° (NE) 2,456 5.9 -27.3°
Sets 13:41:10 0° 42° (NE) 3,384 6.7 -26.9°
